Location: Ladrillo (historical)
(32.8195°N, 117.2231°W)
Time: 03:19:10
(UTC+00:00)

Cosmos 2082 Rocket - Pass Details

Date: 29 October 2020
Orbit: 833 x 854 km, 71.0° (Epoch: 26 November)

Event Time Altitude Azimuth Distance (km) Brightness Sun altitude
Exits shadow 12:09:45 64° 279° (W) 916 2.0 -24.7°
Maximum altitude 12:09:57 65° 292° (WNW) 913 2.0 -24.6°
Drops below altitude 10° 12:15:31 10° 14° (NNE) 2,447 4.7 -23.4°
Sets 12:18:00 0° 17° (NNE) 3,386 5.5 -22.9°
